Location: Bohy
(49.9380°N, 13.5753°E)
Time: 06:39:18
(UTC+00:00)

Cosmos 2084 Rocket - Pass Details

Date: 19 May 2025
Orbit: 542 x 579 km, 62.8° (Epoch: 14 June)

Event Time Altitude Azimuth Distance (km) Brightness Sun altitude
Rises 20:16:00 0° 199° (SSW) 2,780 6.6 -11.0°
Reaches altitude 10° 20:18:21 10° 191° (S) 1,882 5.7 -11.3°
Maximum altitude 20:22:16 37° 124° (SE) 904 3.9 -11.7°
Drops below altitude 10° 20:26:10 10° 57° (ENE) 1,879 6.0 -12.0°
Sets 20:28:31 0° 49° (NE) 2,774 7.0 -12.3°
